Regional Weather Roundup
Issued by NWS Charleston, SC

Current Version | Previous Version | Text Only | Print | Product List | Glossary Off
Versions: 1 2 3 4 5 6 7 8 9 10 11 12 13 14 15 16 17 18 19 20 21 22 23 24 25 26 27 28 29 30 31 32 33 34 35 36 37 38 39 40 41 42 43 44 45 46 47 48 49 50

000
ASUS42 KCHS 111610
RWRCHS
REGIONAL WEATHER ROUNDUP
NATIONAL WEATHER SERVICE CHARLESTON SC
1200 PM EDT FRI JUL 11 2014

NOTE: "FAIR" INDICATES FEW OR NO CLOUDS BELOW 12,000 FEET WITH NO
SIGNIFICANT WEATHER AND/OR OBSTRUCTIONS TO VISIBILITY.

NOT ALL STATIONS ARE QUALITY CONTROLLED BY THE NATIONAL
WEATHER SERVICE. USE DATA WITH CAUTION...ESPECIALLY
DEWPOINT OBSERVATIONS.

SCZ027-030-031-034>040-042>050-111700-
...SOUTH CAROLINA...

CITY           SKY/WX    TMP DP  RH WIND       PRES   REMARKS
N CHARLESTON   CLOUDY    81  72  74 NW3       30.18R
WATERFRONT PRK   N/A     81 N/A N/A CALM        N/A
FORT JOHNSON   NOT AVBL
MOUNT PLEASANT FAIR      82  73  74 CALM      30.17S
JOHNS ISLAND   MOSUNNY   84  70  61 CALM      30.17S
PINOPOLIS        N/A     81  72  74 CALM      30.09F
MONCKS CORNER  LGT RAIN  77  75  94 CALM      30.18S
SUMMERVILLE    LGT RAIN  77  75  94 CALM      30.19R
BEAUFORT MCAS  CLOUDY    84  70  62 VRB5      30.17R
BEAUFORT ARPT  FAIR      84  72  65 CALM      30.16S
HILTON HEAD IS MOSUNNY   84  73  70 N7        30.17S HX  91
GEORGETOWN     NOT AVBL
WALTERBORO     LGT RAIN  79  79 100 CALM      30.19R
ORANGEBURG     CLOUDY    80  71  74 NE6       30.18S
BARNWELL       PTSUNNY   82  73  74 CALM      30.18S
AIKEN          FAIR      79  75  89 NE5       30.22S
MANNING        CLOUDY    79 N/A N/A CALM      30.19R
KINGSTREE      NOT AVBL
COLUMBIA       CLOUDY    79  72  79 E9        30.18R
SUMTER         CLOUDY    75  73  92 E6        30.18R
FLORENCE       CLOUDY    76  71  85 NE5       30.19R
MYRTLE BEACH   PTSUNNY   77  72  83 N5        30.18S
N MYRTLE BEACH LGT RAIN  76  71  85 NE3       30.18S

$$

GAZ063-065-086>088-099>101-113>116-118-119-134-136>141-150-111700-
...GEORGIA...

CITY           SKY/WX    TMP DP  RH WIND       PRES   REMARKS
SAVANNAH ARPT  CLOUDY    84  72  67 N5        30.17R
HUNTER AAF     PTSUNNY   85  72  64 E2        30.14S HX  91
FORT STEWART   PTSUNNY   84  73  70 N6        30.15S HX  91
STATESBORO     NOT AVBL
SYLVANIA       PTSUNNY   80  77  91 S3        30.19R
CLAXTON        FAIR      81  77  89 CALM      30.18S
THOMSON        PTSUNNY   85  78  79 CALM      30.21S HX  97
AUGUSTA-BUSH   PTSUNNY   85  72  65 E6        30.16S HX  91
AUGUSTA-DANIEL PTSUNNY   86  72  62 E6        30.18S HX  92
SWAINSBORO     FAIR      86  75  70 S3        30.17F HX  95
VIDALIA          N/A     81  73  78 CALM      30.17S
ALMA           CLOUDY    83  72  69 S5        30.16S
WAYCROSS       PTSUNNY   88  75  65 W5        30.15F HX  98
JESUP          NOT AVBL
BRUNSWICK      PTSUNNY   86  70  58 CALM      30.16S HX  90
SAINT SIMONS   PTSUNNY   85  72  65 SE7       30.15F HX  91

$$

SCZ027-028-034-036>038-045-046-048>050-GAZ119-141-111700-
...LAKE AND SUPPLEMENTAL COASTAL OBSERVATIONS...

STATION/POSITION TIME  TEMP    WIND        PRES    WAVE   SWELL
                       AIR SEA DIR/SP/G            HT/PER HT/PER/DIR
                 (UTC) (F)     (DEG/KT/KT) (MB)    (FT/S) (FT/S/D)
UPR LAKE MARION  NOT AVBL
WINYAH BAY       1500   80      30/  3     1022.0R
LAKE MURRAY      1500   79      60/  1/  3 1021.3R
ACE BASIN NERRS  1500   80        CALM     1021.0S
FORT PULASKI     1600   82 78   90/  5/  8   N/A
SAPELO ISLAND    1500   85     250/  3     1022.0S

$$

ANZ835-935-AMZ111-154-330-350-352-354-374-450-454-472-111700-
...C-MAN AND BUOY OBSERVATIONS...

STATION/POSITION TIME  TEMP    WIND        PRES    WAVE   SWELL
                       AIR SEA DIR/SP/G            HT/PER HT/PER/DIR
                 (UTC) (F)     (DEG/KT/KT) (MB)    (FT/S) (FT/S/D)
FOLLY BEACH CMAN 1500   81     270/  1/  3 1022.0R
BUOY 41004       1600   81 82  220/  8/  8 1021.0R   3/ 5   3/ 5
BUOY 41008       1600   81 85   20/  2/  4 1021.2F   2/ 6   2/140/ 6
5E ST. MARYS GA  1600      85                N/A     2/11
FRYING PAN BUOY  NOT AVBL
BUOY 41025       1600          VRB 10/ 10  1021.4F   3/ 6   2/170/ 6
CAPE LOOKOUT NC  1500   80     300/  2/  3 1021.6R
BUOY 41002       1540   81 82  210/  6/  8 1023.4F   3/ 6   3/250/ 6
BUOY 41010       1600   82 83  140/  6/  8 1022.4R   2/ 8   2/120/ 8
BUOY 41012       NOT AVBL
ST AUGUSTINE FL  1600   80     110/  6/  7 1022.2F
CAPERS NEARSHORE 1500   82     220/  4/  6   N/A
FRIPP NEARSHORE  1500   84      CALM  /  2   N/A


$$



USA.gov is the U.S. government's official web portal to all federal, state and local government web resources and services.